Location: Newark
(1.5000°S, 132.5000°E)
Time: 09:39:18
(UTC+00:00)

LightSail 2 - Visible Passes

Search period start: 20 October 2019 00:00
Search period end: 30 October 2019 00:00
Orbit: 707 x 722 km, 24.0° (Epoch: 19 October)

Date Brightness Start Highest point End Pass type
(mag) Time Alt. Az. Time Alt. Az. Time Alt. Az.
22 Oct 7.7 10:59:46 10° NNW 11:00:00 11° NNW 11:00:00 11° NNW visible
23 Oct 6.9 10:02:56 10° NNW 10:05:58 15° NNE 10:06:16 15° NNE visible
24 Oct 6.8 10:49:18 10° NW 10:51:39 24° NNW 10:51:39 24° NNW visible
25 Oct 6.3 09:52:06 10° NNW 09:56:23 26° NNE 09:58:06 22° NE visible
25 Oct 8.0 11:36:48 10° WNW 11:37:08 12° WNW 11:37:08 12° WNW visible
26 Oct 5.3 10:39:12 10° WNW 10:43:38 61° NNW 10:43:38 61° NNW visible
26 Oct 7.7 19:33:59 10° S 19:36:29 13° SSE 19:38:58 10° SE visible
27 Oct 5.5 09:41:45 10° NW 09:46:41 47° NNE 09:50:12 18° E visible
27 Oct 7.4 11:27:19 10° W 11:29:14 22° W 11:29:14 22° W visible
27 Oct 7.9 18:38:07 10° S 18:38:35 10° SSE 18:39:04 10° SSE visible
27 Oct 6.9 20:20:12 10° SW 20:24:42 29° SSE 20:29:11 10° E visible
28 Oct 5.4 10:29:27 10° WNW 10:34:33 65° SSW 10:35:51 47° SSE visible
28 Oct 7.3 19:23:00 10° SSW 19:26:56 21° SSE 19:30:52 10° ESE visible
29 Oct 5.1 09:31:44 10° WNW 09:36:53 87° NNE 09:42:03 10° ESE visible
29 Oct 7.1 11:18:16 10° WSW 11:21:30 24° SW 11:21:30 24° SW visible
29 Oct 7.5 18:28:50 16° SSE 18:29:07 16° SSE 18:32:17 10° ESE visible
29 Oct 6.0 20:09:55 10° SW 20:14:58 51° SSE 20:20:00 10° E visible
